• In Lithuania
  • List of Countries
  • For 7 days
  • Water Temperature
  • Satellite Maps
  • Weather Map
  • Weather Widgets
  • user-avatar
    Login

    Hourly Weather Krutoy Verh

    Today, 21 October, Sunday

    Time Temperature Precipitation Wind Pressure Humidity
    00:00 +5°C° 0 mm 2 mps 745 mmHg 79%
    01:00 +5°C° 0 mm 2 mps 745 mmHg 81%
    02:00 +4°C° 0 mm 2 mps 745 mmHg 82%
    03:00 +4°C° 0 mm 2 mps 745 mmHg 84%
    04:00 +4°C° 0 mm 2 mps 745 mmHg 86%
    05:00 +3°C° 0 mm 2 mps 746 mmHg 88%
    06:00 +3°C° 0 mm 2 mps 746 mmHg 89%
    07:00 +4°C° 0 mm 2 mps 746 mmHg 87%
    08:00 +4°C° 0 mm 2 mps 746 mmHg 85%
    09:00 +4°C° 0 mm 3 mps 747 mmHg 83%
    10:00 +5°C° 0 mm 3 mps 747 mmHg 78%
    11:00 +7°C° 0 mm 3 mps 747 mmHg 72%
    12:00 +8°C° 0 mm 3 mps 747 mmHg 66%
    13:00 +8°C° 0 mm 3 mps 747 mmHg 64%
    14:00 +9°C° 0 mm 3 mps 747 mmHg 63%
    15:00 +9°C° 0 mm 3 mps 747 mmHg 61%
    16:00 +8°C° 0 mm 2 mps 747 mmHg 65%
    17:00 +7°C° 0 mm 2 mps 747 mmHg 69%
    18:00 +6°C° 0 mm 2 mps 747 mmHg 73%
    19:00 +6°C° 0 mm 2 mps 748 mmHg 75%
    20:00 +5°C° 0 mm 2 mps 748 mmHg 77%
    21:00 +5°C° 0 mm 2 mps 748 mmHg 78%
    22:00 +4°C° 0 mm 2 mps 748 mmHg 80%
    23:00 +4°C° 0 mm 2 mps 748 mmHg 81%

    Tomorrow, 22 October, Monday

    Time Temperature Precipitation Wind Pressure Humidity
    00:00 +4°C° 0 mm 2 mps 748 mmHg 82%
    01:00 +5°C° 0 mm 1 mps 748 mmHg 83%
    02:00 +4°C° 0 mm 1 mps 748 mmHg 85%
    03:00 +4°C° 0 mm 1 mps 748 mmHg 86%
    04:00 +4°C° 0 mm 1 mps 748 mmHg 87%
    05:00 +4°C° 0 mm 1 mps 748 mmHg 87%
    06:00 +4°C° 0 mm 1 mps 748 mmHg 88%
    07:00 +4°C° 0 mm 1 mps 748 mmHg 86%
    08:00 +5°C° 0 mm 1 mps 748 mmHg 84%
    09:00 +5°C° 0 mm 1 mps 748 mmHg 81%
    10:00 +7°C° 0 mm 1 mps 748 mmHg 75%
    11:00 +8°C° 0 mm 1 mps 748 mmHg 69%
    12:00 +9°C° 0 mm 1 mps 747 mmHg 63%
    13:00 +9°C° 0 mm 2 mps 747 mmHg 61%
    14:00 +9°C° 0 mm 2 mps 746 mmHg 59%
    15:00 +10°C° 0 mm 2 mps 746 mmHg 58%
    16:00 +10°C° 0 mm 1 mps 745 mmHg 63%
    17:00 +9°C° 0 mm 1 mps 745 mmHg 68%
    18:00 +8°C° 0 mm 1 mps 744 mmHg 73%
    19:00 +8°C° 0 mm 1 mps 744 mmHg 76%
    20:00 +8°C° 0 mm 1 mps 744 mmHg 78%
    21:00 +6°C° 0 mm 2 mps 743 mmHg 81%
    22:00 +6°C° 0 mm 2 mps 743 mmHg 83%
    23:00 +6°C° 0 mm 2 mps 742 mmHg 86%

    Day after tomorrow, 23 October, Tuesday

    Time Temperature Precipitation Wind Pressure Humidity
    00:00 +6°C° 0 mm 2 mps 742 mmHg 88%
    01:00 +7°C° 0.1 mm 1 mps 741 mmHg 89%
    02:00 +7°C° 0.1 mm 1 mps 741 mmHg 89%
    03:00 +7°C° 0.1 mm 1 mps 740 mmHg 90%
    04:00 +7°C° 0.3 mm 1 mps 739 mmHg 89%
    05:00 +7°C° 0.3 mm 1 mps 738 mmHg 89%
    06:00 +7°C° 0.3 mm 1 mps 738 mmHg 89%
    07:00 +6°C° 0.4 mm 2 mps 737 mmHg 87%
    08:00 +6°C° 0.4 mm 2 mps 737 mmHg 86%
    09:00 +6°C° 0.4 mm 2 mps 736 mmHg 84%
    10:00 +5°C° 0.6 mm 3 mps 736 mmHg 81%
    11:00 +5°C° 0.6 mm 3 mps 735 mmHg 78%
    12:00 +7°C° 0.6 mm 3 mps 735 mmHg 75%
    13:00 +7°C° 0.1 mm 3 mps 734 mmHg 72%
    14:00 +7°C° 0.1 mm 4 mps 734 mmHg 70%
    15:00 +7°C° 0.1 mm 4 mps 734 mmHg 68%
    16:00 +7°C° 0 mm 4 mps 733 mmHg 72%
    17:00 +7°C° 0 mm 3 mps 733 mmHg 76%
    18:00 +5°C° 0 mm 3 mps 733 mmHg 81%
    19:00 +5°C° 0 mm 3 mps 732 mmHg 82%
    20:00 +5°C° 0 mm 3 mps 732 mmHg 83%
    21:00 +5°C° 0 mm 4 mps 731 mmHg 85%
    22:00 +5°C° 0.1 mm 4 mps 731 mmHg 85%
    23:00 +5°C° 0.1 mm 4 mps 730 mmHg 86%

    24 October, Wednesday

    Time Temperature Precipitation Wind Pressure Humidity
    00:00 +5°C° 0.1 mm 4 mps 730 mmHg 86%
    01:00 +5°C° 0.1 mm 4 mps 729 mmHg 86%
    02:00 +5°C° 0.1 mm 4 mps 729 mmHg 87%
    03:00 +5°C° 0.1 mm 3 mps 728 mmHg 87%
    04:00 +4°C° 0.1 mm 3 mps 728 mmHg 86%
    05:00 +4°C° 0.1 mm 3 mps 727 mmHg 85%
    06:00 +4°C° 0.1 mm 3 mps 727 mmHg 84%
    07:00 +4°C° 0.1 mm 4 mps 726 mmHg 82%
    08:00 +5°C° 0.1 mm 4 mps 726 mmHg 81%
    09:00 +5°C° 0.1 mm 5 mps 726 mmHg 79%
    10:00 +5°C° 0.1 mm 5 mps 725 mmHg 76%
    11:00 +5°C° 0.1 mm 6 mps 725 mmHg 73%
    12:00 +5°C° 0.1 mm 6 mps 724 mmHg 70%
    13:00 +5°C° 0.3 mm 6 mps 724 mmHg 72%
    14:00 +5°C° 0.3 mm 7 mps 723 mmHg 74%
    15:00 +5°C° 0.3 mm 7 mps 723 mmHg 76%
    16:00 +5°C° 0.5 mm 7 mps 722 mmHg 78%
    17:00 +5°C° 0.5 mm 7 mps 722 mmHg 81%
    18:00 +5°C° 0.5 mm 7 mps 721 mmHg 83%
    19:00 +5°C° 0.4 mm 6 mps 721 mmHg 84%
    20:00 +5°C° 0.4 mm 6 mps 721 mmHg 85%
    21:00 +5°C° 0.4 mm 6 mps 720 mmHg 87%
    22:00 +5°C° 0.1 mm 6 mps 720 mmHg 87%
    23:00 +6°C° 0.1 mm 5 mps 720 mmHg 87%

    25 October, Thursday

    Time Temperature Precipitation Wind Pressure Humidity
    00:00 +5°C° 0.1 mm 5 mps 720 mmHg 87%
    01:00 +5°C° 0 mm 5 mps 720 mmHg 85%
    02:00 +5°C° 0 mm 5 mps 720 mmHg 83%
    03:00 +3°C° 0 mm 5 mps 720 mmHg 81%
    04:00 +3°C° 0 mm 5 mps 721 mmHg 81%
    05:00 +2°C° 0 mm 5 mps 721 mmHg 82%
    06:00 +1°C° 0 mm 5 mps 721 mmHg 83%
    07:00 +1°C° 0 mm 5 mps 721 mmHg 81%
    08:00 +2°C° 0 mm 6 mps 721 mmHg 79%
    09:00 +2°C° 0 mm 6 mps 721 mmHg 77%
    10:00 +2°C° 0 mm 6 mps 721 mmHg 73%
    11:00 +3°C° 0 mm 6 mps 721 mmHg 68%
    12:00 +4°C° 0 mm 6 mps 721 mmHg 63%
    13:00 +4°C° 0 mm 6 mps 721 mmHg 63%
    14:00 +4°C° 0 mm 6 mps 722 mmHg 63%
    15:00 +4°C° 0 mm 6 mps 722 mmHg 63%
    16:00 +4°C° 0 mm 6 mps 722 mmHg 65%
    17:00 +3°C° 0 mm 6 mps 722 mmHg 67%
    18:00 +3°C° 0 mm 5 mps 722 mmHg 69%
    19:00 +3°C° 0 mm 5 mps 722 mmHg 72%
    20:00 +3°C° 0 mm 6 mps 723 mmHg 74%
    21:00 +2°C° 0 mm 6 mps 723 mmHg 76%
    22:00 +2°C° 0 mm 5 mps 723 mmHg 79%
    23:00 +2°C° 0 mm 5 mps 724 mmHg 82%

    26 October, Friday

    Time Temperature Precipitation Wind Pressure Humidity
    00:00 +2°C° 0 mm 5 mps 724 mmHg 85%
    01:00 +3°C° 0 mm 4 mps 724 mmHg 85%
    02:00 +3°C° 0 mm 4 mps 725 mmHg 86%
    03:00 +3°C° 0 mm 3 mps 725 mmHg 87%
    04:00 +2°C° 0 mm 3 mps 726 mmHg 88%
    05:00 +2°C° 0 mm 3 mps 727 mmHg 89%
    06:00 +1°C° 0 mm 3 mps 727 mmHg 90%
    07:00 +1°C° 0 mm 3 mps 728 mmHg 88%
    08:00 +1°C° 0 mm 3 mps 728 mmHg 87%
    09:00 0°C° 0 mm 4 mps 729 mmHg 86%
    10:00 +1°C° 0 mm 4 mps 729 mmHg 81%
    11:00 +3°C° 0 mm 4 mps 729 mmHg 75%
    12:00 +4°C° 0 mm 4 mps 730 mmHg 70%
    13:00 +4°C° 0 mm 4 mps 730 mmHg 68%
    14:00 +4°C° 0 mm 4 mps 730 mmHg 66%
    15:00 +5°C° 0 mm 4 mps 730 mmHg 64%
    16:00 +4°C° 0.1 mm 4 mps 730 mmHg 68%
    17:00 +4°C° 0.1 mm 4 mps 731 mmHg 72%
    18:00 +3°C° 0.1 mm 3 mps 731 mmHg 76%
    19:00 +2°C° 0 mm 3 mps 731 mmHg 78%
    20:00 +2°C° 0 mm 3 mps 731 mmHg 79%
    21:00 +1°C° 0 mm 4 mps 732 mmHg 81%
    22:00 +1°C° 0.1 mm 4 mps 732 mmHg 82%
    23:00 +1°C° 0.1 mm 5 mps 732 mmHg 83%
    Show more